Time,TemperatureF,DewpointF,PressureIn,WindDirection,WindDirectionDegrees,WindSpeedMPH,WindSpeedGustMPH,Humidity,HourlyPrecipIn,Conditions,Clouds,dailyrainin,SoftwareType,DateUTC
2013-08-10 00:02:00,58.3,53.2,29.92,SSW,206,7.0,11.0,83,0.00,,,0.00,Wunderground v.1.15,2013-08-10 07:02:00,
2013-08-10 00:07:00,58.2,53.1,29.92,South,188,6.0,11.0,83,0.00,,,0.00,Wunderground v.1.15,2013-08-10 07:07:00,
2013-08-10 00:13:00,58.0,52.9,29.92,South,178,7.0,8.0,83,0.00,,,0.00,Wunderground v.1.15,2013-08-10 07:13:00,
2013-08-10 00:18:00,57.9,52.8,29.92,SSW,195,11.0,11.0,83,0.00,,,0.00,Wunderground v.1.15,2013-08-10 07:18:00,
2013-08-10 00:23:00,57.8,53.0,29.93,SW,222,9.0,11.0,84,0.00,,,0.00,Wunderground v.1.15,2013-08-10 07:23:00,
2013-08-10 00:28:00,57.9,53.1,29.93,South,188,18.0,18.0,84,0.00,,,0.00,Wunderground v.1.15,2013-08-10 07:28:00,
2013-08-10 00:33:00,57.9,53.1,29.93,SSW,211,8.0,11.0,84,0.00,,,0.00,Wunderground v.1.15,2013-08-10 07:33:00,
2013-08-10 00:39:00,57.9,53.1,29.93,SSW,205,7.0,11.0,84,0.00,,,0.00,Wunderground v.1.15,2013-08-10 07:39:00,
2013-08-10 00:44:00,57.9,53.1,29.93,SW,215,12.0,12.0,84,0.00,,,0.00,Wunderground v.1.15,2013-08-10 07:44:00,
2013-08-10 00:49:00,57.9,53.1,29.93,SSE,163,4.0,13.0,84,0.00,,,0.00,Wunderground v.1.15,2013-08-10 07:49:00,
2013-08-10 00:55:00,57.9,53.1,29.93,SW,219,10.0,18.0,84,0.00,,,0.00,Wunderground v.1.15,2013-08-10 07:55:00,
2013-08-10 01:00:00,57.9,53.1,29.93,SE,136,8.0,11.0,84,0.00,,,0.00,Wunderground v.1.15,2013-08-10 08:00:00,
2013-08-10 01:05:00,57.9,53.1,29.93,SSW,195,8.0,12.0,84,0.00,,,0.00,Wunderground v.1.15,2013-08-10 08:05:00,
2013-08-10 01:11:00,58.0,53.2,29.93,South,176,8.0,9.0,84,0.00,,,0.00,Wunderground v.1.15,2013-08-10 08:11:00,
2013-08-10 01:16:00,58.2,53.4,29.93,SSW,213,7.0,10.0,84,0.00,,,0.00,Wunderground v.1.15,2013-08-10 08:16:00,
2013-08-10 01:22:00,58.3,53.5,29.93,SW,219,9.0,13.0,84,0.00,,,0.00,Wunderground v.1.15,2013-08-10 08:22:00,
2013-08-10 01:28:00,58.4,53.3,29.93,South,191,5.0,13.0,83,0.00,,,0.00,Wunderground v.1.15,2013-08-10 08:28:00,
2013-08-10 01:33:00,58.4,53.3,29.93,SSE,167,9.0,9.0,83,0.00,,,0.00,Wunderground v.1.15,2013-08-10 08:33:00,
2013-08-10 01:39:00,58.4,53.6,29.93,South,181,2.0,9.0,84,0.00,,,0.00,Wunderground v.1.15,2013-08-10 08:39:00,
2013-08-10 01:44:00,58.4,53.6,29.93,South,190,4.0,8.0,84,0.00,,,0.00,Wunderground v.1.15,2013-08-10 08:44:00,
2013-08-10 01:49:00,58.4,53.3,29.93,SW,215,7.0,8.0,83,0.00,,,0.00,Wunderground v.1.15,2013-08-10 08:49:00,
2013-08-10 01:54:00,58.4,53.3,29.93,SSW,211,5.0,7.0,83,0.00,,,0.00,Wunderground v.1.15,2013-08-10 08:54:00,
2013-08-10 01:59:00,58.3,53.5,29.93,SSW,206,5.0,12.0,84,0.00,,,0.00,Wunderground v.1.15,2013-08-10 08:59:00,
2013-08-10 02:04:00,58.3,53.5,29.93,South,176,7.0,13.0,84,0.00,,,0.00,Wunderground v.1.15,2013-08-10 09:04:00,
2013-08-10 02:09:00,58.3,53.5,29.93,South,190,4.0,13.0,84,0.00,,,0.00,Wunderground v.1.15,2013-08-10 09:09:00,
2013-08-10 02:14:00,58.3,53.5,29.93,SW,217,7.0,14.0,84,0.00,,,0.00,Wunderground v.1.15,2013-08-10 09:14:00,
2013-08-10 02:19:00,58.2,53.4,29.93,SSW,207,6.0,14.0,84,0.00,,,0.00,Wunderground v.1.15,2013-08-10 09:19:00,
2013-08-10 02:24:00,58.2,53.4,29.93,SSE,161,8.0,12.0,84,0.00,,,0.00,Wunderground v.1.15,2013-08-10 09:24:00,
2013-08-10 02:29:00,58.3,53.5,29.93,SSW,207,7.0,12.0,84,0.00,,,0.00,Wunderground v.1.15,2013-08-10 09:29:00,
2013-08-10 02:34:00,58.3,53.2,29.93,SSW,198,8.0,10.0,83,0.00,,,0.00,Wunderground v.1.15,2013-08-10 09:34:00,
2013-08-10 02:39:00,58.2,53.4,29.93,SSW,213,4.0,15.0,84,0.00,,,0.00,Wunderground v.1.15,2013-08-10 09:39:00,
2013-08-10 02:44:00,58.2,53.4,29.93,SSW,203,5.0,11.0,84,0.00,,,0.00,Wunderground v.1.15,2013-08-10 09:44:00,
2013-08-10 02:49:00,58.1,53.3,29.93,SW,230,8.0,13.0,84,0.00,,,0.00,Wunderground v.1.15,2013-08-10 09:49:00,
2013-08-10 02:54:00,58.1,53.3,29.94,SSW,205,9.0,12.0,84,0.00,,,0.00,Wunderground v.1.15,2013-08-10 09:54:00,
2013-08-10 02:59:00,58.0,53.2,29.93,SSW,203,6.0,14.0,84,0.00,,,0.00,Wunderground v.1.15,2013-08-10 09:59:00,
2013-08-10 03:04:00,58.0,53.2,29.93,SSW,201,7.0,9.0,84,0.00,,,0.00,Wunderground v.1.15,2013-08-10 10:04:00,
2013-08-10 03:09:00,58.0,53.2,29.93,South,171,8.0,11.0,84,0.00,,,0.00,Wunderground v.1.15,2013-08-10 10:09:00,
2013-08-10 03:14:00,58.0,53.2,29.93,South,188,8.0,12.0,84,0.00,,,0.00,Wunderground v.1.15,2013-08-10 10:14:00,
2013-08-10 03:19:00,58.0,53.2,29.93,SW,218,5.0,13.0,84,0.00,,,0.00,Wunderground v.1.15,2013-08-10 10:19:00,
2013-08-10 03:24:00,58.0,53.2,29.93,SSW,207,3.0,12.0,84,0.00,,,0.00,Wunderground v.1.15,2013-08-10 10:24:00,
2013-08-10 03:29:00,58.0,53.2,29.93,SSW,211,8.0,13.0,84,0.00,,,0.00,Wunderground v.1.15,2013-08-10 10:29:00,
2013-08-10 03:34:00,58.1,53.3,29.93,SW,214,5.0,9.0,84,0.00,,,0.00,Wunderground v.1.15,2013-08-10 10:34:00,
2013-08-10 03:39:00,58.2,53.4,29.93,SSW,208,5.0,9.0,84,0.00,,,0.00,Wunderground v.1.15,2013-08-10 10:39:00,
2013-08-10 03:44:00,58.3,53.2,29.93,SSW,203,2.0,7.0,83,0.00,,,0.00,Wunderground v.1.15,2013-08-10 10:44:00,
2013-08-10 03:49:00,58.4,53.3,29.93,SSW,201,3.0,7.0,83,0.00,,,0.00,Wunderground v.1.15,2013-08-10 10:49:00,
2013-08-10 03:54:00,58.5,53.4,29.93,SSW,200,4.0,7.0,83,0.00,,,0.00,Wunderground v.1.15,2013-08-10 10:54:00,
2013-08-10 03:59:00,58.5,53.4,29.93,SSW,200,3.0,7.0,83,0.00,,,0.00,Wunderground v.1.15,2013-08-10 10:59:00,
2013-08-10 04:04:00,58.5,53.4,29.93,SSW,194,1.0,5.0,83,0.00,,,0.00,Wunderground v.1.15,2013-08-10 11:04:00,
2013-08-10 04:09:00,58.4,53.3,29.93,SSW,196,6.0,6.0,83,0.00,,,0.00,Wunderground v.1.15,2013-08-10 11:09:00,
2013-08-10 04:14:00,58.4,53.3,29.93,SSW,192,5.0,7.0,83,0.00,,,0.00,Wunderground v.1.15,2013-08-10 11:14:00,
2013-08-10 04:19:00,58.4,53.3,29.93,South,191,3.0,8.0,83,0.00,,,0.00,Wunderground v.1.15,2013-08-10 11:19:00,
2013-08-10 04:24:00,58.3,53.2,29.93,SSW,212,7.0,9.0,83,0.00,,,0.00,Wunderground v.1.15,2013-08-10 11:24:00,
2013-08-10 04:29:00,58.0,53.2,29.93,SSW,192,5.0,10.0,84,0.00,,,0.00,Wunderground v.1.15,2013-08-10 11:29:00,
2013-08-10 04:34:00,57.8,53.0,29.93,South,178,3.0,8.0,84,0.00,,,0.00,Wunderground v.1.15,2013-08-10 11:34:00,
2013-08-10 04:39:00,57.7,53.2,29.93,South,184,4.0,8.0,85,0.00,,,0.00,Wunderground v.1.15,2013-08-10 11:39:00,
2013-08-10 04:44:00,57.6,53.1,29.93,SSE,167,4.0,8.0,85,0.00,,,0.00,Wunderground v.1.15,2013-08-10 11:44:00,
2013-08-10 04:49:00,57.5,53.0,29.94,SSW,207,7.0,9.0,85,0.00,,,0.00,Wunderground v.1.15,2013-08-10 11:49:00,
2013-08-10 04:54:00,57.5,53.0,29.94,SW,219,2.0,9.0,85,0.00,,,0.00,Wunderground v.1.15,2013-08-10 11:54:00,
2013-08-10 04:59:00,57.4,52.9,29.94,SW,215,6.0,9.0,85,0.00,,,0.00,Wunderground v.1.15,2013-08-10 11:59:00,
2013-08-10 05:04:00,57.3,52.8,29.94,SSW,213,3.0,7.0,85,0.00,,,0.00,Wunderground v.1.15,2013-08-10 12:04:00,
2013-08-10 05:09:00,57.3,52.8,29.94,South,186,5.0,7.0,85,0.00,,,0.00,Wunderground v.1.15,2013-08-10 12:09:00,
2013-08-10 05:14:00,57.2,53.0,29.94,South,191,4.0,7.0,86,0.00,,,0.00,Wunderground v.1.15,2013-08-10 12:14:00,
2013-08-10 05:19:00,57.2,53.0,29.94,South,186,6.0,8.0,86,0.00,,,0.00,Wunderground v.1.15,2013-08-10 12:19:00,
2013-08-10 05:25:00,57.1,53.0,29.95,South,186,7.0,7.0,86,0.00,,,0.00,Wunderground v.1.15,2013-08-10 12:25:00,
2013-08-10 05:30:00,57.0,52.9,29.95,SSW,213,4.0,4.0,86,0.00,,,0.00,Wunderground v.1.15,2013-08-10 12:30:00,
2013-08-10 05:35:00,56.9,52.8,29.95,SSW,202,2.0,7.0,86,0.00,,,0.00,Wunderground v.1.15,2013-08-10 12:35:00,
2013-08-10 05:40:00,56.9,53.1,29.95,SSW,202,3.0,3.0,87,0.00,,,0.00,Wunderground v.1.15,2013-08-10 12:40:00,
2013-08-10 05:45:00,56.9,53.1,29.95,SSW,202,1.0,6.0,87,0.00,,,0.00,Wunderground v.1.15,2013-08-10 12:45:00,
2013-08-10 05:50:00,56.8,53.0,29.96,SSW,202,0.0,3.0,87,0.00,,,0.00,Wunderground v.1.15,2013-08-10 12:50:00,
2013-08-10 05:55:00,56.8,53.0,29.96,SSW,202,1.0,3.0,87,0.00,,,0.00,Wunderground v.1.15,2013-08-10 12:55:00,
2013-08-10 06:01:00,56.7,52.9,29.96,SSW,202,0.0,1.0,87,0.00,,,0.00,Wunderground v.1.15,2013-08-10 13:01:00,
2013-08-10 06:06:00,56.7,52.9,29.96,SSW,202,2.0,2.0,87,0.00,,,0.00,Wunderground v.1.15,2013-08-10 13:06:00,
2013-08-10 06:11:00,56.6,52.8,29.96,SSW,202,1.0,4.0,87,0.00,,,0.00,Wunderground v.1.15,2013-08-10 13:11:00,
2013-08-10 06:16:00,56.5,52.7,29.96,SSW,197,3.0,6.0,87,0.00,,,0.00,Wunderground v.1.15,2013-08-10 13:16:00,
2013-08-10 06:21:00,56.5,52.7,29.97,South,188,2.0,7.0,87,0.00,,,0.00,Wunderground v.1.15,2013-08-10 13:21:00,
2013-08-10 06:26:00,56.5,52.7,29.97,South,188,5.0,7.0,87,0.00,,,0.00,Wunderground v.1.15,2013-08-10 13:26:00,
2013-08-10 06:31:00,56.4,52.9,29.97,South,188,5.0,5.0,88,0.00,,,0.00,Wunderground v.1.15,2013-08-10 13:31:00,
2013-08-10 06:36:00,56.4,52.9,29.97,South,187,5.0,6.0,88,0.00,,,0.00,Wunderground v.1.15,2013-08-10 13:36:00,
2013-08-10 06:41:00,56.4,52.9,29.97,South,184,8.0,8.0,88,0.00,,,0.00,Wunderground v.1.15,2013-08-10 13:41:00,
2013-08-10 06:46:00,56.4,52.9,29.97,South,177,4.0,8.0,88,0.00,,,0.00,Wunderground v.1.15,2013-08-10 13:46:00,
2013-08-10 06:51:00,56.4,52.9,29.97,South,177,5.0,6.0,88,0.00,,,0.00,Wunderground v.1.15,2013-08-10 13:51:00,
2013-08-10 06:56:00,56.4,53.2,29.97,South,177,3.0,6.0,89,0.00,,,0.00,Wunderground v.1.15,2013-08-10 13:56:00,
2013-08-10 07:01:00,56.5,53.3,29.97,South,186,2.0,4.0,89,0.00,,,0.00,Wunderground v.1.15,2013-08-10 14:01:00,
2013-08-10 07:06:00,56.5,53.3,29.97,South,186,6.0,7.0,89,0.00,,,0.00,Wunderground v.1.15,2013-08-10 14:06:00,
2013-08-10 07:11:00,56.6,53.4,29.97,South,186,4.0,7.0,89,0.00,,,0.00,Wunderground v.1.15,2013-08-10 14:11:00,
2013-08-10 07:16:00,56.8,53.6,29.98,South,186,2.0,7.0,89,0.00,,,0.00,Wunderground v.1.15,2013-08-10 14:16:00,
2013-08-10 07:21:00,56.9,53.7,29.98,South,186,0.0,6.0,89,0.00,,,0.00,Wunderground v.1.15,2013-08-10 14:21:00,
2013-08-10 07:26:00,57.1,53.6,29.98,South,186,1.0,8.0,88,0.00,,,0.00,Wunderground v.1.15,2013-08-10 14:26:00,
2013-08-10 07:31:00,57.4,53.9,29.98,South,187,4.0,5.0,88,0.00,,,0.00,Wunderground v.1.15,2013-08-10 14:31:00,
2013-08-10 07:36:00,57.7,54.2,29.98,South,187,4.0,6.0,88,0.00,,,0.00,Wunderground v.1.15,2013-08-10 14:36:00,
2013-08-10 07:41:00,58.0,54.2,29.98,South,187,1.0,5.0,87,0.00,,,0.00,Wunderground v.1.15,2013-08-10 14:41:00,
2013-08-10 07:46:00,58.4,54.5,29.98,South,187,2.0,6.0,87,0.00,,,0.00,Wunderground v.1.15,2013-08-10 14:46:00,
2013-08-10 07:51:00,58.7,54.5,29.99,South,187,2.0,3.0,86,0.00,,,0.00,Wunderground v.1.15,2013-08-10 14:51:00,
2013-08-10 07:56:00,59.2,54.7,29.99,South,187,2.0,4.0,85,0.00,,,0.00,Wunderground v.1.15,2013-08-10 14:56:00,
2013-08-10 08:01:00,59.6,54.8,29.99,South,187,1.0,6.0,84,0.00,,,0.00,Wunderground v.1.15,2013-08-10 15:01:00,
2013-08-10 08:06:00,60.1,54.9,29.99,South,187,2.0,6.0,83,0.00,,,0.00,Wunderground v.1.15,2013-08-10 15:06:00,
2013-08-10 08:11:00,60.4,54.9,29.99,South,187,1.0,4.0,82,0.00,,,0.00,Wunderground v.1.15,2013-08-10 15:11:00,
2013-08-10 08:16:00,60.8,54.9,29.99,South,187,5.0,8.0,81,0.00,,,0.00,Wunderground v.1.15,2013-08-10 15:16:00,
2013-08-10 08:21:00,61.1,55.2,29.99,South,187,5.0,8.0,81,0.00,,,0.00,Wunderground v.1.15,2013-08-10 15:21:00,
2013-08-10 08:26:00,61.3,55.4,29.99,South,187,1.0,8.0,81,0.00,,,0.00,Wunderground v.1.15,2013-08-10 15:26:00,
2013-08-10 08:31:00,61.6,55.4,30.00,South,182,6.0,8.0,80,0.00,,,0.00,Wunderground v.1.15,2013-08-10 15:31:00,
2013-08-10 08:36:00,61.9,55.7,30.00,South,183,4.0,8.0,80,0.00,,,0.00,Wunderground v.1.15,2013-08-10 15:36:00,
2013-08-10 08:41:00,62.2,55.6,30.00,South,183,2.0,5.0,79,0.00,,,0.00,Wunderground v.1.15,2013-08-10 15:41:00,
2013-08-10 08:46:00,62.6,55.6,30.00,South,183,2.0,8.0,78,0.00,,,0.00,Wunderground v.1.15,2013-08-10 15:46:00,
2013-08-10 08:51:00,63.0,55.7,30.00,South,186,3.0,7.0,77,0.00,,,0.00,Wunderground v.1.15,2013-08-10 15:51:00,
2013-08-10 08:56:00,63.3,56.0,30.00,South,186,2.0,10.0,77,0.00,,,0.00,Wunderground v.1.15,2013-08-10 15:56:00,
2013-08-10 09:01:00,63.4,55.7,30.00,South,180,6.0,6.0,76,0.00,,,0.00,Wunderground v.1.15,2013-08-10 16:01:00,
2013-08-10 09:06:00,63.6,55.9,30.00,South,186,5.0,9.0,76,0.00,,,0.00,Wunderground v.1.15,2013-08-10 16:06:00,
2013-08-10 09:11:00,63.8,55.7,30.00,South,185,3.0,8.0,75,0.00,,,0.00,Wunderground v.1.15,2013-08-10 16:11:00,
2013-08-10 09:16:00,64.1,56.0,30.00,South,185,6.0,8.0,75,0.00,,,0.00,Wunderground v.1.15,2013-08-10 16:16:00,
2013-08-10 09:21:00,64.5,56.4,30.00,South,180,7.0,7.0,75,0.00,,,0.00,Wunderground v.1.15,2013-08-10 16:21:00,
2013-08-10 09:26:00,65.0,56.5,30.00,South,179,5.0,9.0,74,0.00,,,0.00,Wunderground v.1.15,2013-08-10 16:26:00,
2013-08-10 09:31:00,65.4,56.1,30.00,South,172,8.0,8.0,72,0.00,,,0.00,Wunderground v.1.15,2013-08-10 16:31:00,
2013-08-10 09:36:00,65.6,56.3,30.00,South,173,4.0,8.0,72,0.00,,,0.00,Wunderground v.1.15,2013-08-10 16:36:00,
2013-08-10 09:41:00,65.9,56.6,30.00,South,178,3.0,7.0,72,0.00,,,0.00,Wunderground v.1.15,2013-08-10 16:41:00,
2013-08-10 09:46:00,66.1,56.4,30.00,South,178,5.0,8.0,71,0.00,,,0.00,Wunderground v.1.15,2013-08-10 16:46:00,
2013-08-10 09:51:00,66.4,56.3,30.00,South,180,4.0,8.0,70,0.00,,,0.00,Wunderground v.1.15,2013-08-10 16:51:00,
2013-08-10 09:56:00,66.8,56.7,30.00,South,180,2.0,8.0,70,0.00,,,0.00,Wunderground v.1.15,2013-08-10 16:56:00,
2013-08-10 10:01:00,67.2,57.1,30.00,South,176,4.0,7.0,70,0.00,,,0.00,Wunderground v.1.15,2013-08-10 17:01:00,
2013-08-10 10:07:00,67.5,57.0,30.01,South,182,4.0,9.0,69,0.00,,,0.00,Wunderground v.1.15,2013-08-10 17:07:00,
2013-08-10 10:12:00,67.7,56.8,30.01,South,180,7.0,8.0,68,0.00,,,0.00,Wunderground v.1.15,2013-08-10 17:12:00,
2013-08-10 10:17:00,67.9,56.9,30.01,South,183,3.0,8.0,68,0.00,,,0.00,Wunderground v.1.15,2013-08-10 17:17:00,
2013-08-10 10:21:00,68.2,57.2,30.01,South,179,2.0,8.0,68,0.00,,,0.00,Wunderground v.1.15,2013-08-10 17:21:00,
2013-08-10 10:27:00,68.5,57.1,30.01,South,180,4.0,8.0,67,0.00,,,0.00,Wunderground v.1.15,2013-08-10 17:27:00,
2013-08-10 10:32:00,68.8,57.4,30.01,South,179,5.0,7.0,67,0.00,,,0.00,Wunderground v.1.15,2013-08-10 17:32:00,
2013-08-10 10:37:00,69.2,57.4,30.01,SSW,192,3.0,10.0,66,0.00,,,0.00,Wunderground v.1.15,2013-08-10 17:37:00,
2013-08-10 10:42:00,69.7,57.4,30.01,SSE,165,4.0,8.0,65,0.00,,,0.00,Wunderground v.1.15,2013-08-10 17:42:00,
2013-08-10 10:47:00,69.9,57.2,30.01,South,182,2.0,10.0,64,0.00,,,0.00,Wunderground v.1.15,2013-08-10 17:47:00,
2013-08-10 10:52:00,70.0,57.3,30.01,SSW,195,6.0,8.0,64,0.00,,,0.00,Wunderground v.1.15,2013-08-10 17:52:00,
2013-08-10 10:57:00,69.9,57.2,30.01,SSW,193,7.0,10.0,64,0.00,,,0.00,Wunderground v.1.15,2013-08-10 17:57:00,
2013-08-10 11:02:00,70.1,57.4,30.01,South,178,11.0,11.0,64,0.00,,,0.00,Wunderground v.1.15,2013-08-10 18:02:00,
2013-08-10 11:07:00,70.1,56.9,30.01,South,181,7.0,11.0,63,0.00,,,0.00,Wunderground v.1.15,2013-08-10 18:07:00,
2013-08-10 11:12:00,70.4,57.2,30.01,South,185,3.0,10.0,63,0.00,,,0.00,Wunderground v.1.15,2013-08-10 18:12:00,
2013-08-10 11:17:00,70.8,57.6,30.01,South,187,9.0,10.0,63,0.00,,,0.00,Wunderground v.1.15,2013-08-10 18:17:00,
2013-08-10 11:22:00,71.0,57.3,30.01,South,189,5.0,10.0,62,0.00,,,0.00,Wunderground v.1.15,2013-08-10 18:22:00,
2013-08-10 11:27:00,71.4,57.2,30.01,South,189,0.0,10.0,61,0.00,,,0.00,Wunderground v.1.15,2013-08-10 18:27:00,
2013-08-10 11:32:00,72.0,57.4,30.01,South,190,3.0,9.0,60,0.00,,,0.00,Wunderground v.1.15,2013-08-10 18:32:00,
2013-08-10 11:37:00,72.2,57.5,30.01,South,188,4.0,9.0,60,0.00,,,0.00,Wunderground v.1.15,2013-08-10 18:37:00,
2013-08-10 11:42:00,72.9,57.7,30.01,South,185,4.0,5.0,59,0.00,,,0.00,Wunderground v.1.15,2013-08-10 18:42:00,
2013-08-10 11:47:00,73.2,57.5,30.01,South,187,2.0,8.0,58,0.00,,,0.00,Wunderground v.1.15,2013-08-10 18:47:00,
2013-08-10 11:52:00,73.3,57.1,30.01,South,184,5.0,6.0,57,0.00,,,0.00,Wunderground v.1.15,2013-08-10 18:52:00,
2013-08-10 11:57:00,73.3,57.6,30.01,SSW,199,6.0,9.0,58,0.00,,,0.00,Wunderground v.1.15,2013-08-10 18:57:00,
2013-08-10 12:02:00,73.4,57.7,30.00,SSW,205,3.0,8.0,58,0.00,,,0.00,Wunderground v.1.15,2013-08-10 19:02:00,
2013-08-10 12:07:00,73.7,58.0,30.00,SSW,195,5.0,10.0,58,0.00,,,0.00,Wunderground v.1.15,2013-08-10 19:07:00,
2013-08-10 12:12:00,74.2,58.0,30.00,South,180,7.0,9.0,57,0.00,,,0.00,Wunderground v.1.15,2013-08-10 19:12:00,
2013-08-10 12:17:00,74.4,57.7,30.00,South,182,4.0,9.0,56,0.00,,,0.00,Wunderground v.1.15,2013-08-10 19:17:00,
2013-08-10 12:22:00,74.9,58.1,30.00,South,171,2.0,10.0,56,0.00,,,0.00,Wunderground v.1.15,2013-08-10 19:22:00,
2013-08-10 12:27:00,75.7,57.9,30.00,South,182,3.0,10.0,54,0.00,,,0.00,Wunderground v.1.15,2013-08-10 19:27:00,
2013-08-10 12:32:00,76.1,58.2,30.00,South,171,3.0,8.0,54,0.00,,,0.00,Wunderground v.1.15,2013-08-10 19:32:00,
2013-08-10 12:37:00,76.4,58.0,29.99,South,179,4.0,10.0,53,0.00,,,0.00,Wunderground v.1.15,2013-08-10 19:37:00,
2013-08-10 12:42:00,76.8,58.4,29.99,South,190,3.0,10.0,53,0.00,,,0.00,Wunderground v.1.15,2013-08-10 19:42:00,
2013-08-10 12:47:00,77.2,58.2,29.99,South,180,6.0,11.0,52,0.00,,,0.00,Wunderground v.1.15,2013-08-10 19:47:00,
2013-08-10 12:52:00,77.7,58.1,29.99,South,173,7.0,9.0,51,0.00,,,0.00,Wunderground v.1.15,2013-08-10 19:52:00,
2013-08-10 12:57:00,77.6,58.6,29.99,South,176,6.0,10.0,52,0.00,,,0.00,Wunderground v.1.15,2013-08-10 19:57:00,
2013-08-10 13:02:00,78.4,58.2,29.99,South,188,5.0,9.0,50,0.00,,,0.00,Wunderground v.1.15,2013-08-10 20:02:00,
2013-08-10 13:07:00,78.5,58.3,29.99,South,186,7.0,10.0,50,0.00,,,0.00,Wunderground v.1.15,2013-08-10 20:07:00,
2013-08-10 13:12:00,78.8,58.0,29.98,South,176,7.0,10.0,49,0.00,,,0.00,Wunderground v.1.15,2013-08-10 20:12:00,
2013-08-10 13:18:00,79.7,58.3,29.98,South,183,6.0,12.0,48,0.00,,,0.00,Wunderground v.1.15,2013-08-10 20:18:00,
2013-08-10 13:23:00,79.8,58.4,29.98,South,185,8.0,9.0,48,0.00,,,0.00,Wunderground v.1.15,2013-08-10 20:23:00,
2013-08-10 13:28:00,79.8,58.4,29.98,South,188,4.0,10.0,48,0.00,,,0.00,Wunderground v.1.15,2013-08-10 20:28:00,
2013-08-10 13:33:00,80.0,58.5,29.98,South,178,4.0,8.0,48,0.00,,,0.00,Wunderground v.1.15,2013-08-10 20:33:00,
2013-08-10 13:38:00,80.3,58.8,29.98,South,179,12.0,12.0,48,0.00,,,0.00,Wunderground v.1.15,2013-08-10 20:38:00,
2013-08-10 13:43:00,80.2,58.7,29.98,South,188,9.0,10.0,48,0.00,,,0.00,Wunderground v.1.15,2013-08-10 20:43:00,
2013-08-10 13:48:00,80.3,58.8,29.97,South,190,9.0,10.0,48,0.00,,,0.00,Wunderground v.1.15,2013-08-10 20:48:00,
2013-08-10 13:53:00,80.5,59.0,29.97,SSW,194,2.0,8.0,48,0.00,,,0.00,Wunderground v.1.15,2013-08-10 20:53:00,
2013-08-10 13:58:00,80.7,59.2,29.97,SSW,194,4.0,9.0,48,0.00,,,0.00,Wunderground v.1.15,2013-08-10 20:58:00,
2013-08-10 14:03:00,81.2,59.1,29.97,South,174,10.0,13.0,47,0.00,,,0.00,Wunderground v.1.15,2013-08-10 21:03:00,
2013-08-10 14:08:00,81.6,59.4,29.97,South,174,6.0,13.0,47,0.00,,,0.00,Wunderground v.1.15,2013-08-10 21:08:00,
2013-08-10 14:13:00,82.2,60.0,29.97,South,180,9.0,13.0,47,0.00,,,0.00,Wunderground v.1.15,2013-08-10 21:13:00,
2013-08-10 14:18:00,82.4,59.5,29.97,South,188,8.0,13.0,46,0.00,,,0.00,Wunderground v.1.15,2013-08-10 21:18:00,
2013-08-10 14:23:00,82.6,59.7,29.96,SSW,192,6.0,13.0,46,0.00,,,0.00,Wunderground v.1.15,2013-08-10 21:23:00,
2013-08-10 14:28:00,82.3,59.4,29.96,SSW,202,6.0,13.0,46,0.00,,,0.00,Wunderground v.1.15,2013-08-10 21:28:00,
2013-08-10 14:33:00,82.1,59.3,29.96,SSE,165,6.0,13.0,46,0.00,,,0.00,Wunderground v.1.15,2013-08-10 21:33:00,
2013-08-10 14:38:00,82.7,59.8,29.96,South,186,8.0,13.0,46,0.00,,,0.00,Wunderground v.1.15,2013-08-10 21:38:00,
2013-08-10 14:43:00,82.4,59.5,29.96,SSW,211,10.0,14.0,46,0.00,,,0.00,Wunderground v.1.15,2013-08-10 21:43:00,
2013-08-10 14:48:00,82.8,59.9,29.96,South,189,10.0,14.0,46,0.00,,,0.00,Wunderground v.1.15,2013-08-10 21:48:00,
2013-08-10 14:53:00,83.1,59.6,29.96,SSW,213,7.0,13.0,45,0.00,,,0.00,Wunderground v.1.15,2013-08-10 21:53:00,
2013-08-10 14:58:00,83.0,59.5,29.95,SW,215,8.0,15.0,45,0.00,,,0.00,Wunderground v.1.15,2013-08-10 21:58:00,
2013-08-10 15:03:00,83.0,59.5,29.95,SSW,200,8.0,14.0,45,0.00,,,0.00,Wunderground v.1.15,2013-08-10 22:03:00,
2013-08-10 15:08:00,83.4,59.8,29.95,South,186,10.0,15.0,45,0.00,,,0.00,Wunderground v.1.15,2013-08-10 22:08:00,
2013-08-10 15:13:00,83.5,59.9,29.95,SSW,197,10.0,15.0,45,0.00,,,0.00,Wunderground v.1.15,2013-08-10 22:13:00,
2013-08-10 15:18:00,83.6,59.4,29.95,South,182,5.0,15.0,44,0.00,,,0.00,Wunderground v.1.15,2013-08-10 22:18:00,
2013-08-10 15:23:00,83.6,60.0,29.95,SW,221,11.0,13.0,45,0.00,,,0.00,Wunderground v.1.15,2013-08-10 22:23:00,
2013-08-10 15:28:00,83.6,59.4,29.94,South,180,12.0,18.0,44,0.00,,,0.00,Wunderground v.1.15,2013-08-10 22:28:00,
2013-08-10 15:33:00,83.9,59.7,29.94,SW,214,8.0,15.0,44,0.00,,,0.00,Wunderground v.1.15,2013-08-10 22:33:00,
2013-08-10 15:38:00,83.8,59.6,29.94,South,181,10.0,15.0,44,0.00,,,0.00,Wunderground v.1.15,2013-08-10 22:38:00,
2013-08-10 15:43:00,84.3,60.0,29.94,South,173,10.0,12.0,44,0.00,,,0.00,Wunderground v.1.15,2013-08-10 22:43:00,
2013-08-10 15:48:00,83.9,59.7,29.94,SSW,211,7.0,14.0,44,0.00,,,0.00,Wunderground v.1.15,2013-08-10 22:48:00,
2013-08-10 15:53:00,83.9,59.7,29.94,SSW,213,8.0,14.0,44,0.00,,,0.00,Wunderground v.1.15,2013-08-10 22:53:00,
2013-08-10 15:58:00,84.0,59.1,29.94,SW,232,7.0,14.0,43,0.00,,,0.00,Wunderground v.1.15,2013-08-10 22:58:00,
2013-08-10 16:04:00,84.5,60.2,29.94,SSW,211,6.0,11.0,44,0.00,,,0.00,Wunderground v.1.15,2013-08-10 23:04:00,
2013-08-10 16:09:00,84.6,59.6,29.94,SSW,195,6.0,12.0,43,0.00,,,0.00,Wunderground v.1.15,2013-08-10 23:09:00,
2013-08-10 16:14:00,84.5,60.2,29.94,SSW,200,9.0,13.0,44,0.00,,,0.00,Wunderground v.1.15,2013-08-10 23:14:00,
2013-08-10 16:19:00,84.2,59.9,29.94,SSW,209,5.0,14.0,44,0.00,,,0.00,Wunderground v.1.15,2013-08-10 23:19:00,
2013-08-10 16:24:00,84.2,59.9,29.93,SW,218,8.0,13.0,44,0.00,,,0.00,Wunderground v.1.15,2013-08-10 23:24:00,
2013-08-10 16:29:00,84.3,60.0,29.93,SW,229,7.0,13.0,44,0.00,,,0.00,Wunderground v.1.15,2013-08-10 23:29:00,
2013-08-10 16:34:00,83.5,59.3,29.93,SSE,163,5.0,13.0,44,0.00,,,0.00,Wunderground v.1.15,2013-08-10 23:34:00,
2013-08-10 16:39:00,83.1,59.6,29.93,SSE,163,8.0,13.0,45,0.00,,,0.00,Wunderground v.1.15,2013-08-10 23:39:00,
2013-08-10 16:44:00,82.8,59.9,29.93,SSW,207,7.0,14.0,46,0.00,,,0.00,Wunderground v.1.15,2013-08-10 23:44:00,
2013-08-10 16:49:00,82.7,59.8,29.93,SSW,205,11.0,16.0,46,0.00,,,0.00,Wunderground v.1.15,2013-08-10 23:49:00,
2013-08-10 16:54:00,82.1,59.3,29.93,SSW,202,5.0,18.0,46,0.00,,,0.00,Wunderground v.1.15,2013-08-10 23:54:00,
2013-08-10 16:59:00,82.0,59.8,29.93,SW,223,6.0,18.0,47,0.00,,,0.00,Wunderground v.1.15,2013-08-10 23:59:00,
2013-08-10 17:04:00,82.1,59.9,29.93,SSW,196,10.0,15.0,47,0.00,,,0.00,Wunderground v.1.15,2013-08-11 00:04:00,
2013-08-10 17:09:00,81.8,59.6,29.93,SSW,202,8.0,18.0,47,0.00,,,0.00,Wunderground v.1.15,2013-08-11 00:09:00,
2013-08-10 17:14:00,81.5,59.3,29.93,SW,220,7.0,15.0,47,0.00,,,0.00,Wunderground v.1.15,2013-08-11 00:14:00,
2013-08-10 17:19:00,81.3,59.1,29.93,SSW,206,6.0,18.0,47,0.00,,,0.00,Wunderground v.1.15,2013-08-11 00:19:00,
2013-08-10 17:24:00,81.3,59.1,29.93,SW,236,6.0,17.0,47,0.00,,,0.00,Wunderground v.1.15,2013-08-11 00:24:00,
2013-08-10 17:29:00,80.7,59.2,29.93,WSW,244,9.0,19.0,48,0.00,,,0.00,Wunderground v.1.15,2013-08-11 00:29:00,
2013-08-10 17:34:00,80.1,59.2,29.93,SSW,193,10.0,18.0,49,0.00,,,0.00,Wunderground v.1.15,2013-08-11 00:34:00,
2013-08-10 17:39:00,80.0,59.1,29.93,WSW,239,7.0,18.0,49,0.00,,,0.00,Wunderground v.1.15,2013-08-11 00:39:00,
2013-08-10 17:44:00,79.9,59.0,29.93,SW,221,13.0,18.0,49,0.00,,,0.00,Wunderground v.1.15,2013-08-11 00:44:00,
2013-08-10 17:49:00,79.6,58.8,29.92,SW,215,10.0,18.0,49,0.00,,,0.00,Wunderground v.1.15,2013-08-11 00:49:00,
2013-08-10 17:54:00,79.5,58.7,29.92,SSW,198,6.0,16.0,49,0.00,,,0.00,Wunderground v.1.15,2013-08-11 00:54:00,
2013-08-10 17:59:00,79.4,58.6,29.92,SSW,209,7.0,16.0,49,0.00,,,0.00,Wunderground v.1.15,2013-08-11 00:59:00,
2013-08-10 18:04:00,79.4,58.6,29.92,South,189,5.0,17.0,49,0.00,,,0.00,Wunderground v.1.15,2013-08-11 01:04:00,
2013-08-10 18:09:00,79.3,57.9,29.92,South,172,4.0,17.0,48,0.00,,,0.00,Wunderground v.1.15,2013-08-11 01:09:00,
2013-08-10 18:14:00,79.2,57.8,29.92,SW,231,15.0,15.0,48,0.00,,,0.00,Wunderground v.1.15,2013-08-11 01:14:00,
2013-08-10 18:19:00,79.0,57.6,29.92,SSW,205,7.0,15.0,48,0.00,,,0.00,Wunderground v.1.15,2013-08-11 01:19:00,
2013-08-10 18:24:00,78.8,58.0,29.92,SSW,202,8.0,12.0,49,0.00,,,0.00,Wunderground v.1.15,2013-08-11 01:24:00,
2013-08-10 18:29:00,78.6,57.8,29.92,SSW,209,4.0,13.0,49,0.00,,,0.00,Wunderground v.1.15,2013-08-11 01:29:00,
2013-08-10 18:34:00,78.2,58.0,29.91,SSW,199,5.0,14.0,50,0.00,,,0.00,Wunderground v.1.15,2013-08-11 01:34:00,
2013-08-10 18:39:00,77.6,58.0,29.92,South,178,11.0,15.0,51,0.00,,,0.00,Wunderground v.1.15,2013-08-11 01:39:00,
2013-08-10 18:44:00,77.0,57.5,29.91,WSW,238,7.0,14.0,51,0.00,,,0.00,Wunderground v.1.15,2013-08-11 01:44:00,
2013-08-10 18:49:00,76.5,57.6,29.91,SSW,209,6.0,14.0,52,0.00,,,0.00,Wunderground v.1.15,2013-08-11 01:49:00,
2013-08-10 18:54:00,76.1,57.7,29.91,South,178,6.0,15.0,53,0.00,,,0.00,Wunderground v.1.15,2013-08-11 01:54:00,
2013-08-10 18:59:00,75.8,57.4,29.91,SSW,197,6.0,15.0,53,0.00,,,0.00,Wunderground v.1.15,2013-08-11 01:59:00,
2013-08-10 19:04:00,75.4,57.6,29.91,WSW,238,11.0,12.0,54,0.00,,,0.00,Wunderground v.1.15,2013-08-11 02:04:00,
2013-08-10 19:09:00,74.9,57.6,29.91,SSW,205,10.0,14.0,55,0.00,,,0.00,Wunderground v.1.15,2013-08-11 02:09:00,
2013-08-10 19:14:00,74.1,57.4,29.91,SW,223,4.0,15.0,56,0.00,,,0.00,Wunderground v.1.15,2013-08-11 02:14:00,
2013-08-10 19:19:00,73.6,57.4,29.91,SSW,208,4.0,15.0,57,0.00,,,0.00,Wunderground v.1.15,2013-08-11 02:19:00,
2013-08-10 19:24:00,73.2,57.1,29.91,SW,218,6.0,14.0,57,0.00,,,0.00,Wunderground v.1.15,2013-08-11 02:24:00,
2013-08-10 19:29:00,72.9,57.3,29.91,SW,222,6.0,14.0,58,0.00,,,0.00,Wunderground v.1.15,2013-08-11 02:29:00,
2013-08-10 19:34:00,72.7,57.1,29.91,South,190,5.0,11.0,58,0.00,,,0.00,Wunderground v.1.15,2013-08-11 02:34:00,
2013-08-10 19:39:00,72.5,56.9,29.91,South,188,7.0,12.0,58,0.00,,,0.00,Wunderground v.1.15,2013-08-11 02:39:00,
2013-08-10 19:44:00,72.0,56.9,29.91,SSW,194,2.0,12.0,59,0.00,,,0.00,Wunderground v.1.15,2013-08-11 02:44:00,
2013-08-10 19:49:00,71.5,56.9,29.92,SW,225,7.0,12.0,60,0.00,,,0.00,Wunderground v.1.15,2013-08-11 02:49:00,
2013-08-10 19:55:00,70.9,56.8,29.92,SSW,204,9.0,10.0,61,0.00,,,0.00,Wunderground v.1.15,2013-08-11 02:55:00,
2013-08-10 20:00:00,70.4,56.8,29.91,SSW,196,7.0,7.0,62,0.00,,,0.00,Wunderground v.1.15,2013-08-11 03:00:00,
2013-08-10 20:05:00,69.9,56.7,29.92,SW,229,6.0,14.0,63,0.00,,,0.00,Wunderground v.1.15,2013-08-11 03:05:00,
2013-08-10 20:10:00,69.3,56.6,29.92,SSW,210,9.0,9.0,64,0.00,,,0.00,Wunderground v.1.15,2013-08-11 03:10:00,
2013-08-10 20:15:00,68.8,56.6,29.92,South,176,12.0,13.0,65,0.00,,,0.00,Wunderground v.1.15,2013-08-11 03:15:00,
2013-08-10 20:21:00,68.5,56.3,29.92,SSW,201,9.0,9.0,65,0.00,,,0.00,Wunderground v.1.15,2013-08-11 03:21:00,
2013-08-10 20:26:00,68.2,56.4,29.92,SW,214,5.0,12.0,66,0.00,,,0.00,Wunderground v.1.15,2013-08-11 03:26:00,
2013-08-10 20:31:00,67.9,56.5,29.92,SSW,203,7.0,11.0,67,0.00,,,0.00,Wunderground v.1.15,2013-08-11 03:31:00,
2013-08-10 20:36:00,67.6,56.2,29.92,SW,220,4.0,12.0,67,0.00,,,0.00,Wunderground v.1.15,2013-08-11 03:36:00,
2013-08-10 20:41:00,67.3,56.4,29.92,SW,216,10.0,13.0,68,0.00,,,0.00,Wunderground v.1.15,2013-08-11 03:41:00,
2013-08-10 20:46:00,67.0,56.5,29.92,SSW,202,7.0,13.0,69,0.00,,,0.00,Wunderground v.1.15,2013-08-11 03:46:00,
2013-08-10 20:51:00,66.6,56.1,29.92,SSW,200,6.0,11.0,69,0.00,,,0.00,Wunderground v.1.15,2013-08-11 03:51:00,
2013-08-10 20:57:00,66.2,56.1,29.92,SSW,197,10.0,12.0,70,0.00,,,0.00,Wunderground v.1.15,2013-08-11 03:57:00,
2013-08-10 21:01:00,65.9,56.2,29.92,SW,214,5.0,12.0,71,0.00,,,0.00,Wunderground v.1.15,2013-08-11 04:01:00,
2013-08-10 21:06:00,65.6,56.3,29.93,SW,214,4.0,15.0,72,0.00,,,0.00,Wunderground v.1.15,2013-08-11 04:06:00,
2013-08-10 21:11:00,65.3,56.4,29.93,SSW,202,5.0,10.0,73,0.00,,,0.00,Wunderground v.1.15,2013-08-11 04:11:00,
2013-08-10 21:16:00,65.1,56.2,29.93,South,191,6.0,15.0,73,0.00,,,0.00,Wunderground v.1.15,2013-08-11 04:16:00,
2013-08-10 21:21:00,64.9,56.0,29.93,SSW,213,7.0,10.0,73,0.00,,,0.00,Wunderground v.1.15,2013-08-11 04:21:00,
2013-08-10 21:26:00,64.7,56.2,29.94,SSW,198,9.0,10.0,74,0.00,,,0.00,Wunderground v.1.15,2013-08-11 04:26:00,
2013-08-10 21:31:00,64.5,56.0,29.94,SSW,194,6.0,13.0,74,0.00,,,0.00,Wunderground v.1.15,2013-08-11 04:31:00,
2013-08-10 21:36:00,64.3,55.8,29.94,SSW,198,3.0,13.0,74,0.00,,,0.00,Wunderground v.1.15,2013-08-11 04:36:00,
2013-08-10 21:41:00,64.1,56.0,29.94,South,184,5.0,7.0,75,0.00,,,0.00,Wunderground v.1.15,2013-08-11 04:41:00,
2013-08-10 21:46:00,64.1,56.0,29.94,SW,218,3.0,14.0,75,0.00,,,0.00,Wunderground v.1.15,2013-08-11 04:46:00,
2013-08-10 21:51:00,64.0,55.9,29.94,South,182,4.0,13.0,75,0.00,,,0.00,Wunderground v.1.15,2013-08-11 04:51:00,
2013-08-10 21:56:00,63.8,55.7,29.94,SSW,197,5.0,13.0,75,0.00,,,0.00,Wunderground v.1.15,2013-08-11 04:56:00,
2013-08-10 22:01:00,63.6,55.9,29.94,SSW,202,6.0,13.0,76,0.00,,,0.00,Wunderground v.1.15,2013-08-11 05:01:00,
2013-08-10 22:06:00,63.4,55.7,29.95,SW,227,9.0,16.0,76,0.00,,,0.00,Wunderground v.1.15,2013-08-11 05:06:00,
2013-08-10 22:11:00,63.0,55.7,29.95,SSW,204,13.0,13.0,77,0.00,,,0.00,Wunderground v.1.15,2013-08-11 05:11:00,
2013-08-10 22:16:00,62.7,55.7,29.95,SSW,194,8.0,13.0,78,0.00,,,0.00,Wunderground v.1.15,2013-08-11 05:16:00,
2013-08-10 22:22:00,62.5,55.5,29.95,South,184,10.0,13.0,78,0.00,,,0.00,Wunderground v.1.15,2013-08-11 05:22:00,
2013-08-10 22:27:00,62.3,55.7,29.95,SSW,207,7.0,14.0,79,0.00,,,0.00,Wunderground v.1.15,2013-08-11 05:27:00,
2013-08-10 22:32:00,62.2,55.6,29.94,SSW,213,7.0,11.0,79,0.00,,,0.00,Wunderground v.1.15,2013-08-11 05:32:00,
2013-08-10 22:37:00,62.1,55.9,29.94,SSW,193,4.0,11.0,80,0.00,,,0.00,Wunderground v.1.15,2013-08-11 05:37:00,
2013-08-10 22:42:00,62.1,55.9,29.94,WSW,242,4.0,7.0,80,0.00,,,0.00,Wunderground v.1.15,2013-08-11 05:42:00,
2013-08-10 22:47:00,62.1,55.9,29.94,SSW,193,2.0,12.0,80,0.00,,,0.00,Wunderground v.1.15,2013-08-11 05:47:00,
2013-08-10 22:53:00,62.1,55.9,29.94,SSW,192,5.0,8.0,80,0.00,,,0.00,Wunderground v.1.15,2013-08-11 05:53:00,
2013-08-10 22:58:00,62.1,55.9,29.94,SSW,204,9.0,10.0,80,0.00,,,0.00,Wunderground v.1.15,2013-08-11 05:58:00,
2013-08-10 23:03:00,61.9,55.7,29.95,South,189,6.0,9.0,80,0.00,,,0.00,Wunderground v.1.15,2013-08-11 06:03:00,
2013-08-10 23:08:00,61.8,55.6,29.95,SSW,209,2.0,10.0,80,0.00,,,0.00,Wunderground v.1.15,2013-08-11 06:08:00,
2013-08-10 23:13:00,61.7,55.8,29.95,SSW,197,3.0,10.0,81,0.00,,,0.00,Wunderground v.1.15,2013-08-11 06:13:00,
2013-08-10 23:18:00,61.6,55.7,29.95,SSE,167,8.0,12.0,81,0.00,,,0.00,Wunderground v.1.15,2013-08-11 06:18:00,
2013-08-10 23:23:00,61.5,55.6,29.95,South,185,3.0,10.0,81,0.00,,,0.00,Wunderground v.1.15,2013-08-11 06:23:00,
2013-08-10 23:29:00,61.5,55.6,29.95,SSW,209,7.0,10.0,81,0.00,,,0.00,Wunderground v.1.15,2013-08-11 06:29:00,
2013-08-10 23:35:00,61.4,55.5,29.95,South,169,4.0,11.0,81,0.00,,,0.00,Wunderground v.1.15,2013-08-11 06:35:00,
2013-08-10 23:40:00,61.4,55.5,29.95,SSW,213,9.0,9.0,81,0.00,,,0.00,Wunderground v.1.15,2013-08-11 06:40:00,
2013-08-10 23:46:00,61.3,55.4,29.95,South,185,5.0,9.0,81,0.00,,,0.00,Wunderground v.1.15,2013-08-11 06:46:00,
2013-08-10 23:51:00,61.2,55.3,29.95,SSW,207,4.0,7.0,81,0.00,,,0.00,Wunderground v.1.15,2013-08-11 06:51:00,
2013-08-10 23:56:00,61.1,55.6,29.95,SSW,207,7.0,10.0,82,0.00,,,0.00,Wunderground v.1.15,2013-08-11 06:56:00,